Regional Weather Roundup
Issued by NWS

Home | Current Version | Previous Version | Graphics & Text | Print | Product List | Glossary On
Versions: 1 2 3 4 5 6 7 8 9 10 11 12 13 14 15 16 17 18 19 20 21 22 23 24 25 26 27 28 29 30 31 32 33 34 35 36 37 38 39 40 41 42 43 44 45 46 47 48 49 50
000
ASUS45 KPSR 281700
RWRAZ

ARIZONA HOURLY REGIONAL WEATHER ROUNDUP
NATIONAL WEATHER SERVICE PHOENIX AZ
1000 AM MST FRI AUG 28 2015

NOTE: FAIR INDICATES FEW OR NO CLOUDS BELOW 12,000 FEET WITH NO
SIGNIFICANT WEATHER AND/OR OBSTRUCTIONS TO VISIBILITY.

AZZ001>003-036-281800-
NORTHWEST ARIZONA

CITY           SKY/WX    TMP DP  RH WIND       PRES   REMARKS
KINGMAN        SUNNY     92  53  26 VRB3      30.12R
$$

AZZ004>008-015-016-018-281800-
NORTH CENTRAL ARIZONA

CITY           SKY/WX    TMP DP  RH WIND       PRES   REMARKS
GRAND CANYON   PTSUNNY   76  46  34 NW3       30.36R
WILLIAMS       SUNNY     77  43  29 N9        30.41S
PRESCOTT       SUNNY     81  55  40 N6        30.24S
FLAGSTAFF      NOT AVBL
PAYSON         SUNNY     82  54  36 CALM      30.24S
PAGE           SUNNY     82  51  34 N6        30.20S
$$

AZZ009>014-017-281800-
NORTHEAST ARIZONA

CITY           SKY/WX    TMP DP  RH WIND       PRES   REMARKS
WINSLOW        NOT AVBL
SAINT JOHNS    SUNNY     75  55  49 VRB3      30.29S
WINDOW ROCK    SUNNY     79  45  29 VRB5      30.35S
SHOW LOW       SUNNY     72  52  49 N7        30.35R
$$

AZZ023-281800-
GREATER PHOENIX AREA

CITY           SKY/WX    TMP DP  RH WIND       PRES   REMARKS
PHOENIX        MOSUNNY   92  62  36 NE7       29.93S
GLENDALE       SUNNY     93  63  36 NE3       29.94F
DEER VALLEY    SUNNY     90  61  37 SW5       29.95S
SCOTTSDALE     SUNNY     91  62  37 CALM      29.97S
MESA-FALCON    MOSUNNY   91  57  31 CALM      29.95S
MESA-GATEWAY   SUNNY     90  61  37 S5        29.97S
CHANDLER       MOSUNNY   90  63  40 CALM      29.95S
$$

AZZ027-028-281800-
SOUTHWEST MARICOPA COUNTY AND PINAL COUNTY

CITY           SKY/WX    TMP DP  RH WIND       PRES   REMARKS
CASA GRANDE    SUNNY     91  61  35 CALM      29.95S
$$

AZZ503-504-507>509-281800-
SOUTHEAST ARIZONA

CITY           SKY/WX    TMP DP  RH WIND       PRES   REMARKS
TUCSON         SUNNY     87  61  41 CALM      30.05S
DAVIS-MONTHAN  SUNNY     87  60  40 S5        30.03S
RYAN FIELD     SUNNY     88  63  42 CALM      30.04S
NOGALES        SUNNY     84  59  42 CALM      30.12F
SAFFORD        SUNNY     81  62  52 VRB3      30.08S
$$

AZZ020-021-025-026-031-281800-
SOUTHWEST ARIZONA

CITY           SKY/WX    TMP DP  RH WIND       PRES   REMARKS
YUMA           NOT AVBL
$$

CAZ031-033-041-043-047-048-061-281800-
SOUTHERN CALIFORNIA

CITY           SKY/WX    TMP DP  RH WIND       PRES   REMARKS
DOWNTOWN L.A.  SUNNY     89  60  37 CALM      29.89S
L.A. AIRPORT   SUNNY     85  63  47 VRB5      29.90S
SAN DIEGO      SUNNY     81  69  67 CALM      29.90S
BURBANK        SUNNY     90  56  31 CALM      29.92S
ONTARIO        MOSUNNY   91  55  29 S5        29.93S
RIVERSIDE      SUNNY     90  56  31 CALM      29.92F
PALM SPRINGS   SUNNY     98  59  27 E8        29.89S
EL CENTRO NAS  SUNNY     99  63  30 W7        29.84S HX 101
IMPERIAL       SUNNY     99  70  38 VRB3      29.82S HX 106
BLYTHE         SUNNY     98  63  31 CALM      29.87S HX 100
$$

NVZ020-UTZ003-281800-
SOUTHERN NEVADA-UTAH

CITY           SKY/WX    TMP DP  RH WIND       PRES   REMARKS
LAS VEGAS      NOT AVBL
SALT LAKE CITY MOSUNNY   81  47  30 SE9       30.19F
$$

NMZ009-TXZ055-281800-
NEW MEXICO-WEST TEXAS

CITY           SKY/WX    TMP DP  RH WIND       PRES   REMARKS
ALBUQUERQUE    PTSUNNY   78  53  41 NW6       30.24F
EL PASO        MOSUNNY   86  55  34 CALM      30.11R
$$


........................KEY........................
SKY/WX - SKY CONDITION/WEATHER
TMP    - TEMPERATURE IN FAHRENHEIT
DP     - DEW POINT IN FAHRENHEIT
RH     - RELATIVE HUMIDITY IN PERCENT
WIND   - DIRECTION AND SPEED IN MILES PER HOUR (MPH)
VRB    - VARIABLE WIND DIRECTION
PRES   - MEAN SEA LEVEL PRESSURE IN INCHES OF MERCURY
         F - FALLING PRESSURE   R - RISING PRESSURE
         S - STEADY PRESSURE
VSB    - VISIBILITY IN MILES
HX     - HEAT INDEX IN FAHRENHEIT
WCI    - WIND CHILL INDEX IN FAHRENHEIT
TC     - TEMPERATURE IN CELSIUS WHICH IS ALSO KNOWN AS
         TEMPERATURE IN CENTIGRADE
AFB    - AIR FORCE BASE
         LUKE AFB IS LUKE AIR FORCE BASE
         DAVIS-MONTHAN IS DAVIS-MONTHAN AIR FORCE BASE
NAS    - NAVAL AIR STATION
         EL CENTRO NAS IS EL CENTRO NAVAL AIR STATION
N/A    - NOT AVAILABLE




USA.gov is the U.S. government's official web portal to all federal, state and local government web resources and services.